Regional Weather Roundup
Issued by NWS

Home | Current Version | Previous Version | Graphics & Text | Print | Product List | Glossary Off
Versions: 1 2 3 4 5 6 7 8 9 10 11 12 13 14 15 16 17 18 19 20 21 22 23 24 25 26 27 28 29 30 31 32 33 34 35 36 37 38 39 40 41 42 43 44 45 46 47 48 49 50

000
ASUS43 KTOP 240559
RWRKS

WEATHER ROUNDUP FOR KANSAS
NATIONAL WEATHER SERVICE GOODLAND KS
100 AM CDT MON APR 24 2017

NOTE:  "FAIR" INDICATES FEW OR NO CLOUDS BELOW 12,000 FEET WITH NO
SIGNIFICANT WEATHER AND/OR OBSTRUCTIONS TO VISIBILITY.

KSZ001>006-013>018-027>032-041>047-240700-
NORTHWEST KANSAS

CITY           SKY/WX    TMP DP  RH WIND       PRES   REMARKS
GOODLAND       CLOUDY    54  37  52 S24G31    29.65F
6HR MIN TEMP:  54; 6HR MAX TEMP:  66;

HAYS           CLOUDY    52  37  56 S14       29.81F
HILL CITY      CLOUDY    55  37  50 S13G22    29.77F
6HR MIN TEMP:  55; 6HR MAX TEMP:  68;

RUSSELL        CLOUDY    53  35  50 S24G33    29.81F
6HR MIN TEMP:  53; 6HR MAX TEMP:  65;

$$

KSZ061>065-074>080-084>089-240700-
SOUTHWEST KANSAS

CITY           SKY/WX    TMP DP  RH WIND       PRES   REMARKS
DODGE CITY     CLOUDY    51  36  56 S21       29.83F
6HR MIN TEMP:  51; 6HR MAX TEMP:  66;

ELKHART          N/A     51  33  50 S16         N/A
GARDEN CITY    CLOUDY    52  34  50 S17G28    29.78F
6HR MIN TEMP:  52; 6HR MAX TEMP:  67;

GREAT BEND     CLOUDY    53  36  52 S18G26    29.83F
$$

KSZ066>073-081>083-090>101-240700-
SOUTHEAST KANSAS

CITY           SKY/WX    TMP DP  RH WIND       PRES   REMARKS
CHANUTE        CLOUDY    45  41  86 SE5       29.97F
6HR MIN TEMP:  45; 6HR MAX TEMP:  66;

COFFEYVILLE    CLOUDY    46  44  93 CALM      29.97F
6HR MIN TEMP:  45; 6HR MAX TEMP:  67;

HUTCHINSON     CLEAR     52  37  56 S12       29.90S
6HR MIN TEMP:  50; 6HR MAX TEMP:  63;

MEDICINE LODGE   N/A     50  37  61 S8        29.89F
PARSONS        PTCLDY    44  42  93 CALM      29.98F
6HR MIN TEMP:  44; 6HR MAX TEMP:  68;

WICHITA INTL   CLEAR     47  40  76 S7        29.92F
6HR MIN TEMP:  47; 6HR MAX TEMP:  63;

WICHITA JABRA  CLEAR     50  39  66 SE9       29.92F
6HR MIN TEMP:  49; 6HR MAX TEMP:  64;

WINFIELD       CLOUDY    50  40  68 SE8       29.96S
6HR MIN TEMP:  48; 6HR MAX TEMP:  64;

$$

KSZ007>012-019>026-033>040-048>060-102>105-240700-
NORTHEAST KANSAS

CITY           SKY/WX    TMP DP  RH WIND       PRES   REMARKS
CONCORDIA      CLOUDY    53  37  54 S17G24    29.85F
6HR MIN TEMP:  52; 6HR MAX TEMP:  63;

EMPORIA        PTCLDY    48  42  80 S7        29.95S
6HR MIN TEMP:  48; 6HR MAX TEMP:  64;

LAWRENCE       CLOUDY    46  41  82 E5        29.96F
6HR MIN TEMP:  45; 6HR MAX TEMP:  68;

MANHATTAN      CLOUDY    50  41  71 S5        29.91F
6HR MIN TEMP:  50; 6HR MAX TEMP:  68;

OLATHE IND     CLOUDY    46  37  71 SE5       29.97F
6HR MIN TEMP:  46; 6HR MAX TEMP:  66;

OLATHE EXE     CLOUDY    50  38  63 CALM      29.97F
6HR MIN TEMP:  50; 6HR MAX TEMP:  65;

SALINA         CLOUDY    52  40  63 S14       29.88F
6HR MIN TEMP:  47; 6HR MAX TEMP:  65;

TOPEKA BILLARD CLOUDY    55  38  52 S6        29.95F
6HR MIN TEMP:  53; 6HR MAX TEMP:  68;

TOPEKA FORBES  CLOUDY    52  39  61 S5        29.95S
6HR MIN TEMP:  52; 6HR MAX TEMP:  67;

$$




USA.gov is the U.S. government's official web portal to all federal, state and local government web resources and services.